Regional Weather Roundup
Issued by NWS Mt. Holly, NJ

Home | Current Version | Previous Version | Text Only | Print | Product List | Glossary On
Versions: 1 2 3 4 5 6 7 8 9 10 11 12 13 14 15 16 17 18 19 20 21 22 23 24 25 26 27 28 29 30 31 32 33 34 35 36 37 38 39 40 41 42 43 44 45 46 47 48 49 50
000
ASUS41 KPHI 261610
RWRPHI

REGIONAL WEATHER ROUNDUP
NATIONAL WEATHER SERVICE MOUNT HOLLY NJ
1200 PM EDT SAT JUL 26 2014

NOTE:  "FAIR" INDICATES FEW OR NO CLOUDS BELOW 12,000 FEET WITH NO
SIGNIFICANT WEATHER AND/OR OBSTRUCTIONS TO VISIBILITY.

 * = STATION DOES NOT REPORT PRECIPITATION (E.G. RAIN, SNOW, ETC.)
        OR FOG.

NJZ015>026-261700-
SOUTHERN NEW JERSEY

CITY           SKY/WX    TMP DP  RH WIND       PRES   REMARKS
POMONA         CLOUDY    78  66  66 SW9       30.00S
RIO GRANDE*    PTSUNNY   79  64  61 S10       30.01F
MILLVILLE      LGT RAIN  75  68  78 SW5       30.00F
WRIGHTSTOWN    CLOUDY    73  66  78 S2        29.98F
MOUNT HOLLY    CLOUDY    77  67  71 CALM      29.99F
TRENTON        CLOUDY    73  65  75 CALM      29.99F

$$
NJZ001>014-261700-
NORTHERN NEW JERSEY

CITY           SKY/WX    TMP DP  RH WIND       PRES   REMARKS
SUSSEX         CLOUDY    71  60  68 VRB3      29.99S
ANDOVER*         N/A     74  60  61 SW9       30.00S
MORRISTOWN     MOSUNNY   73  63  68 W8        30.00S
NEWARK         LGT RAIN  76  64  66 W10       29.99F
TETERBORO      LGT RAIN  77  60  55 SW7       29.98F
CALDWELL       CLOUDY    71  60  68 CALM      30.00S
SOMERVILLE     CLOUDY    75  63  66 W5        29.98F
ALLAIRE*       CLOUDY    73  66  78 SW5       30.00F
TOMS RIVER*    CLOUDY    75  64  69 CALM      30.01F

$$
PAZ043-044-047-054-055-060>062-066>071-261700-
EASTERN PENNSYLVANIA

CITY           SKY/WX    TMP DP  RH WIND       PRES   REMARKS
PHILADELPHIA   CLOUDY    77  66  68 VRB3      29.99F
NORTH PHILA    CLOUDY    75  66  73 SW5       30.01S
BLUE BELL      CLOUDY    73  70  88 S3        29.99F
DOYLESTOWN     CLOUDY    74  67  78 VRB5      29.99F
QUAKERTOWN*    CLOUDY    73  66  78 SW3       30.01F
POTTSTOWN      CLOUDY    73  66  78 NW3       30.01F
LANCASTER      MOSUNNY   74  62  66 CALM      30.00F
COATESVILLE    CLOUDY    72  66  83 W5        30.02F
READING        PTSUNNY   75  62  64 VRB5      29.99F
ALLENTOWN      PTSUNNY   76  60  57 CALM      29.99F
MOUNT POCONO   CLOUDY    67  54  63 W7        30.04S
HAZLETON       PTSUNNY   70  55  60 CALM      30.06S
WILKES BARRE   CLOUDY    70  55  59 W7        30.01S

$$
DEZALL-MDZ008-012-015-019-020-261700-
DELAWARE AND EASTERN MARYLAND

CITY           SKY/WX    TMP DP  RH WIND       PRES   REMARKS
WILMINGTON     CLOUDY    76  67  73 SW7       29.99F
DOVER          LGT RAIN  76  71  85 S9        29.98F
GEORGETOWN     PTSUNNY   81  69  67 S14       30.00F
EASTON         PTSUNNY   77  72  83 W5        30.02F
PATUXENT       PTSUNNY   79  69  71 SW9       29.99F
OCEAN CITY     MOSUNNY   79  68  69 S8        30.01F
WALLOPS ISLAND MOSUNNY   84  69  60 S14       30.02F
CAMBRIDGE      PTSUNNY   81  68  65 S10G17    29.98F

$$
PAZ001-021-NYZ056-072-MDZ011-DCZ001-261700-
OTHER NEARBY LOCATIONS

CITY           SKY/WX    TMP DP  RH WIND       PRES   REMARKS
HARRISBURG     MOSUNNY   78  59  51 CALM      29.99F
STATE COLLEGE  MOSUNNY   72  61  68 SW6       30.02F
WILLIAMSPORT   CLOUDY    68  57  68 CALM      30.00F
BINGHAMTON     PTSUNNY   69  56  62 SW5       30.00F
NEW YORK CITY  CLOUDY    76  62  62 SW5       30.02S
BALTIMORE      PTSUNNY   80  65  59 NW5       29.98F
WASHINGTON DC  PTSUNNY   83  62  49 CALM      29.99F

$$


USA.gov is the U.S. government's official web portal to all federal, state and local government web resources and services.